Fairfield, IA

9:27 AM CDT on May 24, 2018 (GMT -0500)
Fairfield Municipal

Weather History for KFFL - March, 2014

Change the Weather History Date:

Tuesday, March 4, 2014

  Actual Average Record
Temperature  
Mean Temperature 18 °F -  
Max Temperature 32 °F 43 °F 71 °F (1992)
Min Temperature 5 °F 25 °F -11 °F (1978)
Degree Days  
Heating Degree Days 46    
Moisture  
Dew Point 6 °F    
Average Humidity 57    
Maximum Humidity 73    
Minimum Humidity 34    
Precipitation  
Precipitation 0.00 in - - ()
Sea Level Pressure  
Sea Level Pressure 30.17 in    
Wind  
Wind Speed 7 mph (SE)    
Max Wind Speed 14 mph    
Max Gust Speed 13 mph    
Visibility 10 miles    
Events      
Averages and records for this station are not official NWS values.
T = Trace of Precipitation, MM = Missing Value Source: NWS Daily Summary

Daily Weather History Graph

Daily Weather History Graph

Search for Another Location

Airport or City:

Astronomy

Mar. 04, 2014 Rise Set
Actual Time 6:37 AM CST 6:02 PM CST
Civil Twilight 6:09 AM CST 6:29 PM CST
Nautical Twilight 5:38 AM CST 7:01 PM CST
Astronomical Twilight 5:06 AM CST 7:33 PM CST
Moon 8:21 AM CST (3/4) 10:12 PM CST (3/4)
Length of Visible Light 12h 20m
Length of Day
11h 24m
Waxing Crescent, 15% of the Moon is Illuminated
Mar 4
Waxing Crescent
Mar 8
First Quarter
Mar 16
Full
Mar 23
Last Quarter
Mar 30
New

Hourly Weather History & Observations

Time (CST) Temp. Windchill Dew Point Humidity Pressure Visibility Wind Dir Wind Speed Gust Speed Precip Events Conditions
12:15 AM 12.2 °F 2.9 °F -0.4 °F 57% 30.30 in 10.0 mi SE 5.8 mph - N/A   Overcast
12:35 AM 12.2 °F 1.7 °F -0.4 °F 57% 30.29 in 10.0 mi SSE 6.9 mph - N/A   Overcast
12:55 AM 12.2 °F 0.7 °F -0.4 °F 57% 30.29 in 10.0 mi SSE 8.1 mph - N/A   Overcast
1:15 AM 14.0 °F 2.9 °F -0.4 °F 53% 30.29 in 10.0 mi SSE 8.1 mph - N/A   Overcast
1:35 AM 14.0 °F 2.9 °F -0.4 °F 53% 30.28 in 10.0 mi SSE 8.1 mph - N/A   Overcast
1:55 AM 14.0 °F 3.9 °F -0.4 °F 53% 30.27 in 10.0 mi SSE 6.9 mph - N/A   Overcast
2:15 AM 12.2 °F 0.7 °F -0.4 °F 57% 30.27 in 10.0 mi SSE 8.1 mph - N/A   Mostly Cloudy
2:35 AM 14.0 °F 3.9 °F -0.4 °F 53% 30.26 in 10.0 mi SSE 6.9 mph - N/A   Overcast
2:55 AM 12.2 °F 1.7 °F 1.4 °F 62% 30.25 in 10.0 mi SSE 6.9 mph - N/A   Overcast
3:10 AM 12.2 °F 1.7 °F 1.4 °F 62% 30.25 in 10.0 mi SSE 6.9 mph - N/A   Overcast
3:35 AM 10.4 °F -1.5 °F -0.4 °F 62% 30.24 in 10.0 mi SSE 8.1 mph - N/A   Mostly Cloudy
3:55 AM 10.4 °F -0.4 °F -0.4 °F 62% 30.23 in 10.0 mi SSE 6.9 mph - N/A   Mostly Cloudy
4:15 AM 8.6 °F -3.7 °F -0.4 °F 67% 30.22 in 10.0 mi SSE 8.1 mph - N/A   Partly Cloudy
4:35 AM 8.6 °F -3.7 °F -0.4 °F 67% 30.22 in 10.0 mi SSE 8.1 mph - N/A   Clear
4:55 AM 8.6 °F -1.3 °F -0.4 °F 67% 30.22 in 10.0 mi SE 5.8 mph - N/A   Clear
5:15 AM 8.6 °F -2.6 °F -0.4 °F 67% 30.22 in 10.0 mi SSE 6.9 mph - N/A   Clear
5:35 AM 8.6 °F -1.3 °F -0.4 °F 67% 30.22 in 10.0 mi SE 5.8 mph - N/A   Clear
5:55 AM 6.8 °F -2.0 °F -2.2 °F 67% 30.21 in 10.0 mi SE 4.6 mph - N/A   Clear
6:15 AM 5.0 °F -4.1 °F -2.2 °F 72% 30.22 in 10.0 mi East 4.6 mph - N/A   Clear
6:35 AM 5.0 °F -4.1 °F -2.2 °F 72% 30.21 in 10.0 mi ESE 4.6 mph - N/A   Partly Cloudy
6:55 AM 5.0 °F -4.1 °F -2.2 °F 72% 30.21 in 10.0 mi ESE 4.6 mph - N/A   Clear
7:15 AM 6.8 °F -3.5 °F -0.4 °F 72% 30.21 in 10.0 mi ESE 5.8 mph - N/A   Clear
7:35 AM 6.8 °F -0.1 °F -0.4 °F 72% 30.21 in 10.0 mi SE 3.5 mph - N/A   Partly Cloudy
7:50 AM 8.6 °F -2.6 °F 1.4 °F 73% 30.20 in 10.0 mi SE 6.9 mph - N/A   Partly Cloudy
8:15 AM 12.2 °F 0.7 °F 3.2 °F 67% 30.20 in 10.0 mi SSE 8.1 mph - N/A   Clear
8:35 AM 14.0 °F 2.0 °F 5.0 °F 67% 30.20 in 10.0 mi SSE 9.2 mph - N/A   Clear
8:55 AM 15.8 °F 3.4 °F 5.0 °F 62% 30.19 in 10.0 mi South 10.4 mph - N/A   Clear
9:15 AM 17.6 °F 6.4 °F 5.0 °F 58% 30.18 in 10.0 mi South 9.2 mph - N/A   Clear
9:35 AM 17.6 °F 7.3 °F 6.8 °F 63% 30.18 in 10.0 mi South 8.1 mph - N/A   Clear
9:55 AM 19.4 °F 9.5 °F 6.8 °F 58% 30.18 in 10.0 mi South 8.1 mph - N/A   Clear
10:15 AM 21.2 °F 12.6 °F 5.0 °F 50% 30.18 in 10.0 mi South 6.9 mph - N/A   Clear
10:35 AM 23.0 °F 13.1 °F 6.8 °F 50% 30.18 in 10.0 mi South 9.2 mph - N/A   Clear
10:55 AM 23.0 °F 13.9 °F 6.8 °F 50% 30.18 in 10.0 mi South 8.1 mph - N/A   Clear
11:15 AM 24.8 °F 14.6 °F 5.0 °F 43% 30.18 in 10.0 mi SSW 10.4 mph - N/A   Clear
11:35 AM 24.8 °F 16.1 °F 6.8 °F 46% 30.17 in 10.0 mi South 8.1 mph - N/A   Clear
11:55 AM 24.8 °F 15.3 °F 5.0 °F 43% 30.17 in 10.0 mi SSW 9.2 mph - N/A   Clear
12:15 PM 26.6 °F 19.1 °F 6.8 °F 43% 30.16 in 10.0 mi SSW 6.9 mph 12.7 mph N/A   Clear
12:35 PM 26.6 °F 19.1 °F 5.0 °F 40% 30.16 in 10.0 mi South 6.9 mph - N/A   Clear
12:55 PM 26.6 °F 19.1 °F 5.0 °F 40% 30.15 in 10.0 mi South 6.9 mph - N/A   Clear
1:15 PM 28.4 °F 22.2 °F 5.0 °F 37% 30.14 in 10.0 mi South 5.8 mph - N/A   Clear
1:35 PM 28.4 °F 22.2 °F 5.0 °F 37% 30.13 in 10.0 mi SSE 5.8 mph - N/A   Clear
1:55 PM 28.4 °F 24.6 °F 5.0 °F 37% 30.12 in 10.0 mi SSE 3.5 mph - N/A   Clear
2:15 PM 28.4 °F - 5.0 °F 37% 30.12 in 10.0 mi Calm Calm - N/A   Clear
2:35 PM 30.2 °F - 5.0 °F 34% 30.12 in 10.0 mi Calm Calm - N/A   Clear
2:55 PM 30.2 °F 26.7 °F 6.8 °F 37% 30.10 in 10.0 mi SE 3.5 mph - N/A   Clear
3:15 PM 30.2 °F 25.4 °F 8.6 °F 40% 30.10 in 10.0 mi East 4.6 mph - N/A   Clear
3:35 PM 30.2 °F 22.6 °F 8.6 °F 40% 30.09 in 10.0 mi ESE 8.1 mph - N/A   Clear
3:55 PM 30.2 °F 22.6 °F 10.4 °F 44% 30.10 in 10.0 mi East 8.1 mph - N/A   Clear
4:15 PM 30.2 °F 22.6 °F 10.4 °F 44% 30.10 in 10.0 mi East 8.1 mph - N/A   Clear
4:35 PM 30.2 °F 21.9 °F 10.4 °F 44% 30.09 in 10.0 mi East 9.2 mph - N/A   Clear
4:55 PM 32.0 °F 23.6 °F 10.4 °F 41% 30.09 in 10.0 mi ESE 10.4 mph - N/A   Clear
5:15 PM 30.2 °F 21.9 °F 12.2 °F 47% 30.09 in 10.0 mi SE 9.2 mph - N/A   Clear
5:35 PM 30.2 °F 23.4 °F 14.0 °F 51% 30.10 in 10.0 mi ESE 6.9 mph - N/A   Clear
5:55 PM 28.4 °F 21.2 °F 15.8 °F 59% 30.11 in 10.0 mi ESE 6.9 mph - N/A   Clear
6:15 PM 26.6 °F 19.1 °F 14.0 °F 59% 30.11 in 10.0 mi East 6.9 mph - N/A   Clear
6:35 PM 24.8 °F 17.9 °F 14.0 °F 64% 30.13 in 10.0 mi East 5.8 mph - N/A   Scattered Clouds
6:55 PM 26.6 °F 18.2 °F 14.0 °F 59% 30.12 in 10.0 mi ENE 8.1 mph - N/A   Overcast
7:15 PM 24.8 °F 14.6 °F 14.0 °F 64% 30.11 in 10.0 mi ENE 10.4 mph - N/A   Overcast
7:35 PM 26.6 °F 17.5 °F 15.8 °F 64% 30.12 in 10.0 mi ENE 9.2 mph - N/A   Overcast
7:55 PM 26.6 °F 17.5 °F 15.8 °F 64% 30.11 in 10.0 mi East 9.2 mph - N/A   Overcast
8:15 PM 24.8 °F 14.0 °F 15.8 °F 69% 30.10 in 10.0 mi East 11.5 mph - N/A   Overcast
8:35 PM 24.8 °F 14.0 °F 14.0 °F 64% 30.11 in 10.0 mi ENE 11.5 mph - N/A   Overcast
8:50 PM 24.8 °F 14.6 °F 14.0 °F 64% 30.12 in 10.0 mi ENE 10.4 mph - N/A   Mostly Cloudy
9:15 PM 24.8 °F 15.3 °F 14.0 °F 64% 30.12 in 10.0 mi East 9.2 mph - N/A   Mostly Cloudy
9:35 PM 23.0 °F 13.1 °F 14.0 °F 68% 30.13 in 10.0 mi East 9.2 mph - N/A   Partly Cloudy
9:55 PM 23.0 °F 12.4 °F 14.0 °F 68% 30.12 in 10.0 mi East 10.4 mph - N/A   Partly Cloudy
10:15 PM 23.0 °F 13.1 °F 14.0 °F 68% 30.14 in 10.0 mi East 9.2 mph - N/A   Mostly Cloudy
10:35 PM 23.0 °F 12.4 °F 14.0 °F 68% 30.14 in 10.0 mi ENE 10.4 mph - N/A   Overcast
10:55 PM 23.0 °F 11.7 °F 14.0 °F 68% 30.15 in 10.0 mi ENE 11.5 mph - N/A   Overcast
11:15 PM 23.0 °F 11.7 °F 12.2 °F 63% 30.14 in 10.0 mi East 11.5 mph - N/A   Mostly Cloudy
11:35 PM 23.0 °F 11.7 °F 12.2 °F 63% 30.15 in 10.0 mi ENE 11.5 mph - N/A   Mostly Cloudy
11:55 PM 23.0 °F 10.6 °F 12.2 °F 63% 30.15 in 10.0 mi ENE 13.8 mph - N/A   Overcast